Find Starlink 33986

NORAD ID: 63870 Int'l Des: 2025-094 Owner: SPXS Country: US Constellation: starlink operational
LEOCIRCULAR

当前视图

正在加载3D地球...

About Starlink 33986

Starlink 33986 (NORAD 63870) is a starlink constellation satellite (v2 mini) launched May 10, 2025 by SPXS of US. It operates in LEO, CIRCULAR orbit with a mass of 575.00 kg.

即将过境

Passes for default location (London). Set your location on the main map for personalized predictions.

高度历史

Loading altitude history...

两行轨道根数

1 63870U 25094G 26263.16670139 -.00049693 00000-0 -16903-2 0 9990
2 63870 69.9993 101.8359 0002675 268.4578 357.9916 15.30441461 5710
Epoch: Sep 20, 2026 • Age: 11 hours

当前状态

高度 484.9 km
远地点 / 近地点 N/A
速度 7.62 km/s
星下点 -31.62°S, 72.75°E
发射日期 May 10, 2025
运行时间 1.3 years
类型 internet

技术详情

分类 Payload
质量 575.00 kg
干质量 530.00 kg
长度 0.30 m
跨度 29.00 m
形状 ? Box + pan
制造商 SPXS
平台类型 Starlink V2MO
阶段状态 In Orbit
所有者/国家 SPXS/US

Most Searched